Time,TemperatureF,DewpointF,PressureIn,WindDirection,WindDirectionDegrees,WindSpeedMPH,WindSpeedGustMPH,Humidity,HourlyPrecipIn,Conditions,Clouds,dailyrainin,SoftwareType,DateUTC
2013-01-25 00:03:00,9.2,2.6,30.51,SW,236,2.9,6.9,74,0.00,RA,,0.00,WeatherDisplay:10.37,2013-01-25 05:03:00,
2013-01-25 00:08:00,9.0,2.7,30.50,SW,215,1.4,4.6,75,0.00,RA,,0.00,WeatherDisplay:10.37,2013-01-25 05:08:00,
2013-01-25 00:13:00,9.0,2.7,30.51,SSW,200,1.2,3.5,75,0.00,,,0.00,WeatherDisplay:10.37,2013-01-25 05:13:00,
2013-01-25 00:18:00,8.9,2.6,30.50,SSW,197,2.0,3.5,75,0.00,,,0.00,WeatherDisplay:10.37,2013-01-25 05:18:00,
2013-01-25 00:23:00,8.9,2.9,30.51,WSW,244,2.9,4.6,76,0.00,,,0.00,WeatherDisplay:10.37,2013-01-25 05:23:00,
2013-01-25 00:28:00,8.8,2.8,30.51,SSW,207,2.0,2.0,76,0.00,,,0.00,WeatherDisplay:10.37,2013-01-25 05:28:00,
2013-01-25 00:33:00,8.7,3.0,30.50,SW,226,0.6,2.3,77,0.00,,,0.00,WeatherDisplay:10.37,2013-01-25 05:33:00,
2013-01-25 00:38:00,8.6,2.9,30.50,SSW,200,1.3,3.5,77,0.00,,,0.00,WeatherDisplay:10.37,2013-01-25 05:38:00,
2013-01-25 00:43:00,8.5,2.8,30.50,South,182,0.3,3.5,77,0.00,,,0.00,WeatherDisplay:10.37,2013-01-25 05:43:00,
2013-01-25 00:48:00,8.4,2.7,30.50,SSW,207,1.2,2.3,77,0.00,,,0.00,WeatherDisplay:10.37,2013-01-25 05:48:00,
2013-01-25 00:53:00,8.2,2.8,30.50,South,188,0.4,3.5,78,0.00,,,0.00,WeatherDisplay:10.37,2013-01-25 05:53:00,
2013-01-25 00:58:00,8.1,2.7,30.49,SSE,164,1.7,2.3,78,0.00,,,0.00,WeatherDisplay:10.37,2013-01-25 05:58:00,
2013-01-25 01:03:00,8.1,2.7,30.49,SW,221,0.4,1.0,78,0.00,CLR,,0.00,WeatherDisplay:10.37,2013-01-25 06:03:00,
2013-01-25 01:08:00,8.0,2.6,30.49,South,175,0.3,2.0,78,0.00,CLR,,0.00,WeatherDisplay:10.37,2013-01-25 06:08:00,
2013-01-25 01:13:00,8.1,2.9,30.49,South,180,1.1,2.3,79,0.00,CLR,,0.00,WeatherDisplay:10.37,2013-01-25 06:13:00,
2013-01-25 01:18:00,8.1,2.9,30.49,SSW,207,0.0,0.0,79,0.00,CLR,,0.00,WeatherDisplay:10.37,2013-01-25 06:18:00,
2013-01-25 01:23:00,8.1,2.9,30.49,South,180,0.0,0.0,79,0.00,CLR,,0.00,WeatherDisplay:10.37,2013-01-25 06:23:00,
2013-01-25 01:28:00,8.1,2.9,30.49,SSW,203,0.0,0.0,79,0.00,CLR,,0.00,WeatherDisplay:10.37,2013-01-25 06:28:00,
2013-01-25 01:33:00,8.2,3.0,30.49,South,190,0.0,2.3,79,0.00,CLR,,0.00,WeatherDisplay:10.37,2013-01-25 06:33:00,
2013-01-25 01:38:00,8.3,3.4,30.48,South,190,0.0,0.0,80,0.00,CLR,,0.00,WeatherDisplay:10.37,2013-01-25 06:38:00,
2013-01-25 01:43:00,8.3,3.4,30.48,South,191,0.0,0.0,80,0.00,CLR,,0.00,WeatherDisplay:10.37,2013-01-25 06:43:00,
2013-01-25 01:48:00,8.4,3.5,30.48,SSW,192,0.0,1.1,80,0.00,CLR,,0.00,WeatherDisplay:10.37,2013-01-25 06:48:00,
2013-01-25 01:53:00,8.5,3.6,30.48,SSW,196,0.1,1.0,80,0.00,CLR,,0.00,WeatherDisplay:10.37,2013-01-25 06:53:00,
2013-01-25 01:58:00,8.3,3.1,30.48,SW,222,0.3,3.5,79,0.00,CLR,,0.00,WeatherDisplay:10.37,2013-01-25 06:58:00,
2013-01-25 02:03:00,8.2,3.0,30.48,SW,236,1.2,3.0,79,0.00,CLR,,0.00,WeatherDisplay:10.37,2013-01-25 07:03:00,
2013-01-25 02:08:00,8.1,3.2,30.48,SW,215,0.4,2.3,80,0.00,CLR,,0.00,WeatherDisplay:10.37,2013-01-25 07:08:00,
2013-01-25 02:13:00,8.1,3.2,30.48,South,190,0.7,2.3,80,0.00,CLR,,0.00,WeatherDisplay:10.37,2013-01-25 07:13:00,
2013-01-25 02:18:00,8.1,3.2,30.48,South,179,0.4,3.5,80,0.00,CLR,,0.00,WeatherDisplay:10.37,2013-01-25 07:18:00,
2013-01-25 02:23:00,8.1,3.2,30.48,SSW,193,0.0,0.0,80,0.00,CLR,,0.00,WeatherDisplay:10.37,2013-01-25 07:23:00,
2013-01-25 02:28:00,8.2,3.3,30.48,SSW,194,0.5,2.3,80,0.00,CLR,,0.00,WeatherDisplay:10.37,2013-01-25 07:28:00,
2013-01-25 02:33:00,8.3,3.4,30.48,SSW,202,0.0,1.1,80,0.00,CLR,,0.00,WeatherDisplay:10.37,2013-01-25 07:33:00,
2013-01-25 02:38:00,8.5,3.9,30.48,SSW,202,0.0,0.0,81,0.00,CLR,,0.00,WeatherDisplay:10.37,2013-01-25 07:38:00,
2013-01-25 02:43:00,8.5,3.6,30.49,SSW,205,0.2,1.1,80,0.00,CLR,,0.00,WeatherDisplay:10.37,2013-01-25 07:43:00,
2013-01-25 02:48:00,8.5,3.9,30.49,SSW,205,0.0,0.0,81,0.00,CLR,,0.00,WeatherDisplay:10.37,2013-01-25 07:48:00,
2013-01-25 02:53:00,8.6,4.0,30.49,SSW,205,0.1,0.0,81,0.00,CLR,,0.00,WeatherDisplay:10.37,2013-01-25 07:53:00,
2013-01-25 02:58:00,8.7,4.1,30.49,South,185,0.0,1.1,81,0.00,CLR,,0.00,WeatherDisplay:10.37,2013-01-25 07:58:00,
2013-01-25 03:03:00,8.9,4.3,30.49,West,271,0.0,2.3,81,0.00,CLR,,0.00,WeatherDisplay:10.37,2013-01-25 08:03:00,
2013-01-25 03:08:00,9.0,4.4,30.49,SW,231,0.2,1.1,81,0.00,CLR,,0.00,WeatherDisplay:10.37,2013-01-25 08:08:00,
2013-01-25 03:13:00,9.0,4.4,30.49,SSW,202,0.3,1.1,81,0.00,CLR,,0.00,WeatherDisplay:10.37,2013-01-25 08:13:00,
2013-01-25 03:18:00,8.9,4.3,30.49,WSW,238,0.0,1.1,81,0.00,CLR,,0.00,WeatherDisplay:10.37,2013-01-25 08:18:00,
2013-01-25 03:23:00,8.9,4.5,30.49,WSW,237,0.9,3.5,82,0.00,CLR,,0.00,WeatherDisplay:10.37,2013-01-25 08:23:00,
2013-01-25 03:28:00,8.8,4.4,30.49,SW,232,1.6,4.0,82,0.00,CLR,,0.00,WeatherDisplay:10.37,2013-01-25 08:28:00,
2013-01-25 03:33:00,8.8,4.4,30.49,SW,217,1.3,3.5,82,0.00,CLR,,0.00,WeatherDisplay:10.37,2013-01-25 08:33:00,
2013-01-25 03:38:00,8.9,4.5,30.48,SSW,213,1.7,2.0,82,0.00,CLR,,0.00,WeatherDisplay:10.37,2013-01-25 08:38:00,
2013-01-25 03:43:00,9.0,4.9,30.48,SSW,213,0.0,0.0,83,0.00,CLR,,0.00,WeatherDisplay:10.37,2013-01-25 08:43:00,
2013-01-25 03:48:00,9.0,4.9,30.48,South,180,2.6,4.6,83,0.00,CLR,,0.00,WeatherDisplay:10.37,2013-01-25 08:48:00,
2013-01-25 03:53:00,9.0,4.9,30.48,SSW,211,0.4,5.8,83,0.00,CLR,,0.00,WeatherDisplay:10.37,2013-01-25 08:53:00,
2013-01-25 03:58:00,8.9,4.8,30.47,SW,232,0.1,3.5,83,0.00,CLR,,0.00,WeatherDisplay:10.37,2013-01-25 08:58:00,
2013-01-25 04:03:00,8.8,4.7,30.47,SW,221,0.1,1.1,83,0.00,CLR,,0.00,WeatherDisplay:10.37,2013-01-25 09:03:00,
2013-01-25 04:08:00,8.9,4.8,30.47,SW,221,0.0,0.0,83,0.00,CLR,,0.00,WeatherDisplay:10.37,2013-01-25 09:08:00,
2013-01-25 04:13:00,8.9,5.1,30.47,WSW,256,0.0,0.0,84,0.00,CLR,,0.00,WeatherDisplay:10.37,2013-01-25 09:13:00,
2013-01-25 04:18:00,9.0,5.1,30.46,WSW,248,0.0,1.0,84,0.00,CLR,,0.00,WeatherDisplay:10.37,2013-01-25 09:18:00,
2013-01-25 04:23:00,9.0,5.1,30.46,WSW,246,0.0,0.0,84,0.00,CLR,,0.00,WeatherDisplay:10.37,2013-01-25 09:23:00,
2013-01-25 04:28:00,9.1,5.2,30.46,WSW,246,0.0,0.0,84,0.00,CLR,,0.00,WeatherDisplay:10.37,2013-01-25 09:28:00,
2013-01-25 04:33:00,9.0,5.1,30.46,SW,220,0.0,0.0,84,0.00,CLR,,0.00,WeatherDisplay:10.37,2013-01-25 09:33:00,
2013-01-25 04:38:00,9.0,5.1,30.46,SW,219,0.0,0.0,84,0.00,CLR,,0.00,WeatherDisplay:10.37,2013-01-25 09:38:00,
2013-01-25 04:43:00,9.0,5.1,30.45,SSW,207,0.6,1.1,84,0.00,CLR,,0.00,WeatherDisplay:10.37,2013-01-25 09:43:00,
2013-01-25 04:48:00,9.0,5.1,30.45,SSW,207,0.0,0.0,84,0.00,CLR,,0.00,WeatherDisplay:10.37,2013-01-25 09:48:00,
2013-01-25 04:53:00,9.0,5.1,30.45,SSW,207,0.0,3.5,84,0.00,CLR,,0.00,WeatherDisplay:10.37,2013-01-25 09:53:00,
2013-01-25 04:58:00,9.0,5.1,30.44,SSW,200,0.0,0.0,84,0.00,CLR,,0.00,WeatherDisplay:10.37,2013-01-25 09:58:00,
2013-01-25 05:03:00,8.9,5.1,30.44,SSW,200,0.0,0.0,84,0.00,CLR,,0.00,WeatherDisplay:10.37,2013-01-25 10:03:00,
2013-01-25 05:08:00,8.9,5.1,30.44,SSW,200,0.2,1.1,84,0.00,CLR,,0.00,WeatherDisplay:10.37,2013-01-25 10:08:00,
2013-01-25 05:13:00,8.9,5.1,30.43,SSW,199,0.1,1.1,84,0.00,CLR,,0.00,WeatherDisplay:10.37,2013-01-25 10:13:00,
2013-01-25 05:18:00,8.9,5.1,30.43,SSW,199,0.0,0.0,84,0.00,CLR,,0.00,WeatherDisplay:10.37,2013-01-25 10:18:00,
2013-01-25 05:23:00,8.9,5.1,30.43,SSW,199,0.0,0.0,84,0.00,CLR,,0.00,WeatherDisplay:10.37,2013-01-25 10:23:00,
2013-01-25 05:28:00,8.9,4.8,30.43,SSW,192,1.3,3.5,83,0.00,CLR,,0.00,WeatherDisplay:10.37,2013-01-25 10:28:00,
2013-01-25 05:33:00,8.9,4.8,30.43,SW,233,0.0,1.1,83,0.00,CLR,,0.00,WeatherDisplay:10.37,2013-01-25 10:33:00,
2013-01-25 05:38:00,8.9,4.8,30.43,SSE,168,0.0,3.5,83,0.00,CLR,,0.00,WeatherDisplay:10.37,2013-01-25 10:38:00,
2013-01-25 05:43:00,8.9,4.8,30.43,SSW,203,0.0,0.0,83,0.00,CLR,,0.00,WeatherDisplay:10.37,2013-01-25 10:43:00,
2013-01-25 05:48:00,8.9,4.8,30.43,SSW,193,0.9,3.0,83,0.00,CLR,,0.00,WeatherDisplay:10.37,2013-01-25 10:48:00,
2013-01-25 05:53:00,8.7,4.6,30.42,South,187,0.7,3.5,83,0.00,CLR,,0.00,WeatherDisplay:10.37,2013-01-25 10:53:00,
2013-01-25 05:58:00,8.6,4.2,30.42,SSW,210,0.2,2.3,82,0.00,CLR,,0.00,WeatherDisplay:10.37,2013-01-25 10:58:00,
2013-01-25 06:03:00,8.5,4.1,30.42,SSW,210,0.4,1.0,82,0.00,CLR,,0.00,WeatherDisplay:10.37,2013-01-25 11:03:00,
2013-01-25 06:08:00,8.5,4.1,30.42,SW,223,0.5,1.1,82,0.00,CLR,,0.00,WeatherDisplay:10.37,2013-01-25 11:08:00,
2013-01-25 06:13:00,8.4,4.0,30.42,SSW,198,0.4,1.1,82,0.00,CLR,,0.00,WeatherDisplay:10.37,2013-01-25 11:13:00,
2013-01-25 06:18:00,8.5,4.1,30.42,SW,221,0.0,0.0,82,0.00,CLR,,0.00,WeatherDisplay:10.37,2013-01-25 11:18:00,
2013-01-25 06:23:00,8.5,4.4,30.42,SW,221,0.0,0.0,83,0.00,CLR,,0.00,WeatherDisplay:10.37,2013-01-25 11:23:00,
2013-01-25 06:28:00,8.4,4.0,30.42,South,183,0.6,1.1,82,0.00,CLR,,0.00,WeatherDisplay:10.37,2013-01-25 11:28:00,
2013-01-25 06:33:00,8.4,4.0,30.42,South,183,0.0,0.0,82,0.00,CLR,,0.00,WeatherDisplay:10.37,2013-01-25 11:33:00,
2013-01-25 06:38:00,8.4,4.3,30.42,South,183,0.0,0.0,83,0.00,CLR,,0.00,WeatherDisplay:10.37,2013-01-25 11:38:00,
2013-01-25 06:43:00,8.5,4.4,30.42,South,186,0.7,2.3,83,0.00,CLR,,0.00,WeatherDisplay:10.37,2013-01-25 11:43:00,
2013-01-25 06:48:00,8.4,4.3,30.42,South,185,0.5,1.0,83,0.00,CLR,,0.00,WeatherDisplay:10.37,2013-01-25 11:48:00,
2013-01-25 06:53:00,8.4,4.3,30.42,South,184,0.9,3.5,83,0.00,CLR,,0.00,WeatherDisplay:10.37,2013-01-25 11:53:00,
2013-01-25 06:58:00,8.4,4.0,30.41,SSW,200,0.3,2.3,82,0.00,CLR,,0.00,WeatherDisplay:10.37,2013-01-25 11:58:00,
2013-01-25 07:03:00,8.4,4.0,30.41,South,188,1.2,2.0,82,0.00,CLR,,0.00,WeatherDisplay:10.37,2013-01-25 12:03:00,
2013-01-25 07:08:00,8.4,4.0,30.42,SSW,193,1.1,2.3,82,0.00,CLR,,0.00,WeatherDisplay:10.37,2013-01-25 12:08:00,
2013-01-25 07:13:00,8.4,4.0,30.41,SSW,194,0.3,3.5,82,0.00,CLR,,0.00,WeatherDisplay:10.37,2013-01-25 12:13:00,
2013-01-25 07:18:00,8.3,3.9,30.41,SSW,202,0.0,0.0,82,0.00,CLR,,0.00,WeatherDisplay:10.37,2013-01-25 12:18:00,
2013-01-25 07:23:00,8.3,3.9,30.41,South,187,0.7,2.3,82,0.00,CLR,,0.00,WeatherDisplay:10.37,2013-01-25 12:23:00,
2013-01-25 07:28:00,8.4,4.0,30.41,SSW,202,0.0,1.1,82,0.00,CLR,,0.00,WeatherDisplay:10.37,2013-01-25 12:28:00,
2013-01-25 07:33:00,8.4,4.0,30.41,SSW,202,0.0,0.0,82,0.00,CLR,,0.00,WeatherDisplay:10.37,2013-01-25 12:33:00,
2013-01-25 07:38:00,8.5,4.1,30.41,SW,223,0.4,1.0,82,0.00,CLR,,0.00,WeatherDisplay:10.37,2013-01-25 12:38:00,
2013-01-25 07:43:00,8.5,4.1,30.41,SW,223,0.1,1.1,82,0.00,CLR,,0.00,WeatherDisplay:10.37,2013-01-25 12:43:00,
2013-01-25 07:48:00,8.5,3.9,30.40,SSW,196,0.3,2.3,81,0.00,CLR,,0.00,WeatherDisplay:10.37,2013-01-25 12:48:00,
2013-01-25 07:53:00,8.6,4.2,30.40,South,186,0.2,2.3,82,0.00,CLR,,0.00,WeatherDisplay:10.37,2013-01-25 12:53:00,
2013-01-25 07:58:00,8.7,4.1,30.39,SSW,192,0.3,0.0,81,0.00,CLR,,0.00,WeatherDisplay:10.37,2013-01-25 12:58:00,
2013-01-25 08:03:00,8.8,4.4,30.39,South,191,0.4,1.1,82,0.00,CLR,,0.00,WeatherDisplay:10.37,2013-01-25 13:03:00,
2013-01-25 08:08:00,8.9,4.3,30.39,SSW,197,0.0,0.0,81,0.00,CLR,,0.00,WeatherDisplay:10.37,2013-01-25 13:08:00,
2013-01-25 08:13:00,9.0,4.4,30.39,SSW,200,0.7,0.0,81,0.00,CLR,,0.00,WeatherDisplay:10.37,2013-01-25 13:13:00,
2013-01-25 08:18:00,9.0,4.4,30.39,SSW,201,0.0,0.0,81,0.00,CLR,,0.00,WeatherDisplay:10.37,2013-01-25 13:18:00,
2013-01-25 08:23:00,9.0,4.4,30.39,SSW,201,0.0,0.0,81,0.00,CLR,,0.00,WeatherDisplay:10.37,2013-01-25 13:23:00,
2013-01-25 08:28:00,9.2,4.6,30.39,SSW,201,0.2,0.0,81,0.00,CLR,,0.00,WeatherDisplay:10.37,2013-01-25 13:28:00,
2013-01-25 08:33:00,9.3,4.6,30.39,SSW,200,0.0,0.0,81,0.00,CLR,,0.00,WeatherDisplay:10.37,2013-01-25 13:33:00,
2013-01-25 08:38:00,9.3,4.4,30.39,South,187,0.3,1.1,80,0.00,CLR,,0.00,WeatherDisplay:10.37,2013-01-25 13:38:00,
2013-01-25 08:43:00,9.5,4.8,30.38,South,187,0.0,0.0,81,0.00,CLR,,0.00,WeatherDisplay:10.37,2013-01-25 13:43:00,
2013-01-25 08:48:00,9.8,4.9,30.38,South,187,0.0,0.0,80,0.00,CLR,,0.00,WeatherDisplay:10.37,2013-01-25 13:48:00,
2013-01-25 08:53:00,9.9,5.0,30.38,SSW,196,0.0,0.0,80,0.00,CLR,,0.00,WeatherDisplay:10.37,2013-01-25 13:53:00,
2013-01-25 08:58:00,9.9,4.7,30.38,SSW,197,0.0,0.0,79,0.00,CLR,,0.00,WeatherDisplay:10.37,2013-01-25 13:58:00,
2013-01-25 09:03:00,10.2,5.3,30.38,SSW,197,0.0,0.0,80,0.00,CLR,,0.00,WeatherDisplay:10.37,2013-01-25 14:03:00,
2013-01-25 09:08:00,10.3,5.1,30.38,SSW,197,0.0,0.0,79,0.00,CLR,,0.00,WeatherDisplay:10.37,2013-01-25 14:08:00,
2013-01-25 09:13:00,10.5,5.3,30.38,South,190,0.0,1.1,79,0.00,CLR,,0.00,WeatherDisplay:10.37,2013-01-25 14:13:00,
2013-01-25 09:18:00,11.0,6.0,30.38,South,182,0.0,0.0,80,0.00,CLR,,0.00,WeatherDisplay:10.37,2013-01-25 14:18:00,
2013-01-25 09:23:00,11.4,6.2,30.38,South,182,0.0,0.0,79,0.00,CLR,,0.00,WeatherDisplay:10.37,2013-01-25 14:23:00,
2013-01-25 09:28:00,11.7,6.2,30.37,South,182,0.0,0.0,78,0.00,CLR,,0.00,WeatherDisplay:10.37,2013-01-25 14:28:00,
2013-01-25 09:33:00,12.1,6.6,30.37,South,182,0.0,0.0,78,0.00,CLR,,0.00,WeatherDisplay:10.37,2013-01-25 14:33:00,
2013-01-25 09:38:00,12.6,7.0,30.37,South,182,0.0,0.0,78,0.00,CLR,,0.00,WeatherDisplay:10.37,2013-01-25 14:38:00,
2013-01-25 09:43:00,13.0,6.9,30.36,South,182,0.0,1.1,76,0.00,CLR,,0.00,WeatherDisplay:10.37,2013-01-25 14:43:00,
2013-01-25 09:48:00,13.3,7.1,30.36,South,179,0.7,2.3,76,0.00,CLR,,0.00,WeatherDisplay:10.37,2013-01-25 14:48:00,
2013-01-25 09:53:00,13.3,6.6,30.36,South,169,0.4,1.1,74,0.00,CLR,,0.00,WeatherDisplay:10.37,2013-01-25 14:53:00,
2013-01-25 09:58:00,13.1,6.4,30.36,South,169,0.0,0.0,74,0.00,CLR,,0.00,WeatherDisplay:10.37,2013-01-25 14:58:00,
2013-01-25 10:03:00,13.3,6.9,30.35,SE,144,0.0,0.0,75,0.00,CLR,,0.00,WeatherDisplay:10.37,2013-01-25 15:03:00,
2013-01-25 10:08:00,13.3,6.3,30.35,South,184,0.0,1.0,73,0.00,CLR,,0.00,WeatherDisplay:10.37,2013-01-25 15:08:00,
2013-01-25 10:13:00,13.1,6.1,30.35,SSW,198,0.0,1.1,73,0.00,CLR,,0.00,WeatherDisplay:10.37,2013-01-25 15:13:00,
2013-01-25 10:18:00,12.8,5.8,30.35,South,174,0.3,3.5,73,0.00,CLR,,0.00,WeatherDisplay:10.37,2013-01-25 15:18:00,
2013-01-25 10:23:00,13.0,6.0,30.34,South,174,0.0,0.0,73,0.00,CLR,,0.00,WeatherDisplay:10.37,2013-01-25 15:23:00,
2013-01-25 10:28:00,13.0,6.0,30.34,South,175,0.0,1.1,73,0.00,CLR,,0.00,WeatherDisplay:10.37,2013-01-25 15:28:00,
2013-01-25 10:33:00,13.2,6.5,30.33,South,175,0.0,0.0,74,0.00,CLR,,0.00,WeatherDisplay:10.37,2013-01-25 15:33:00,
2013-01-25 10:38:00,13.6,6.8,30.34,South,172,0.0,0.0,74,0.00,CLR,,0.00,WeatherDisplay:10.37,2013-01-25 15:38:00,
2013-01-25 10:43:00,13.4,6.1,30.33,SSW,196,0.0,1.1,72,0.00,CLR,,0.00,WeatherDisplay:10.37,2013-01-25 15:43:00,
2013-01-25 10:48:00,13.4,6.4,30.33,South,175,0.0,0.0,73,0.00,CLR,,0.00,WeatherDisplay:10.37,2013-01-25 15:48:00,
2013-01-25 10:53:00,13.8,7.0,30.32,South,175,0.1,1.1,74,0.00,CLR,,0.00,WeatherDisplay:10.37,2013-01-25 15:53:00,
2013-01-25 10:58:00,14.3,7.2,30.32,South,175,0.0,0.0,73,0.00,CLR,,0.00,WeatherDisplay:10.37,2013-01-25 15:58:00,
2013-01-25 11:03:00,14.6,7.2,30.32,South,175,0.0,0.0,72,0.00,CLR,,0.00,WeatherDisplay:10.37,2013-01-25 16:03:00,
2013-01-25 11:08:00,14.9,7.5,30.31,SSE,147,0.0,0.0,72,0.00,CLR,,0.00,WeatherDisplay:10.37,2013-01-25 16:08:00,
2013-01-25 11:13:00,15.1,7.7,30.31,SSE,165,0.6,2.3,72,0.00,CLR,,0.00,WeatherDisplay:10.37,2013-01-25 16:13:00,
2013-01-25 11:18:00,15.3,7.6,30.31,SSE,165,0.0,0.0,71,0.00,CLR,,0.00,WeatherDisplay:10.37,2013-01-25 16:18:00,
2013-01-25 11:23:00,15.5,8.1,30.30,SSE,165,0.0,0.0,72,0.00,CLR,,0.00,WeatherDisplay:10.37,2013-01-25 16:23:00,
2013-01-25 11:28:00,15.8,8.4,30.30,East,81,0.3,0.0,72,0.00,CLR,,0.00,WeatherDisplay:10.37,2013-01-25 16:28:00,
2013-01-25 11:33:00,16.0,8.6,30.30,ENE,67,0.4,2.0,72,0.00,CLR,,0.00,WeatherDisplay:10.37,2013-01-25 16:33:00,
2013-01-25 11:38:00,15.9,8.2,30.29,ENE,57,0.3,2.3,71,0.00,CLR,,0.00,WeatherDisplay:10.37,2013-01-25 16:38:00,
2013-01-25 11:43:00,15.7,7.6,30.29,ESE,123,0.0,0.0,70,0.00,CLR,,0.00,WeatherDisplay:10.37,2013-01-25 16:43:00,
2013-01-25 11:48:00,15.8,8.1,30.29,SSW,195,0.9,2.3,71,0.00,CLR,,0.00,WeatherDisplay:10.37,2013-01-25 16:48:00,
2013-01-25 11:53:00,15.9,8.2,30.28,ENE,77,0.4,2.3,71,0.00,CLR,,0.00,WeatherDisplay:10.37,2013-01-25 16:53:00,
2013-01-25 11:58:00,15.6,7.2,30.28,SE,142,0.2,1.1,69,0.00,CLR,,0.00,WeatherDisplay:10.37,2013-01-25 16:58:00,
2013-01-25 12:03:00,15.5,7.5,30.27,SSE,154,0.9,4.0,70,0.00,CLR,,0.00,WeatherDisplay:10.37,2013-01-25 17:03:00,
2013-01-25 12:08:00,15.6,7.6,30.27,ENE,76,0.4,2.3,70,0.00,CLR,,0.00,WeatherDisplay:10.37,2013-01-25 17:08:00,
2013-01-25 12:13:00,15.9,8.2,30.27,South,177,1.5,3.5,71,0.00,CLR,,0.00,WeatherDisplay:10.37,2013-01-25 17:13:00,
2013-01-25 12:18:00,16.1,8.3,30.26,SE,145,0.1,1.1,71,0.00,CLR,,0.00,WeatherDisplay:10.37,2013-01-25 17:18:00,
2013-01-25 12:23:00,16.3,8.5,30.25,SE,134,0.0,0.0,71,0.00,CLR,,0.00,WeatherDisplay:10.37,2013-01-25 17:23:00,
2013-01-25 12:28:00,16.6,8.5,30.25,SE,136,0.0,0.0,70,0.00,CLR,,0.00,WeatherDisplay:10.37,2013-01-25 17:28:00,
2013-01-25 12:33:00,16.7,8.6,30.25,SE,129,1.1,3.5,70,0.00,CLR,,0.00,WeatherDisplay:10.37,2013-01-25 17:33:00,
2013-01-25 12:38:00,16.8,8.4,30.25,East,87,1.2,2.3,69,0.00,CLR,,0.00,WeatherDisplay:10.37,2013-01-25 17:38:00,
2013-01-25 12:43:00,16.6,8.2,30.24,SSE,149,0.0,0.0,69,0.00,CLR,,0.00,WeatherDisplay:10.37,2013-01-25 17:43:00,
2013-01-25 12:48:00,16.7,8.6,30.24,SSE,151,0.6,2.3,70,0.00,CLR,,0.00,WeatherDisplay:10.37,2013-01-25 17:48:00,
2013-01-25 12:53:00,16.8,8.7,30.23,SSE,159,0.0,2.0,70,0.00,CLR,,0.00,WeatherDisplay:10.37,2013-01-25 17:53:00,
2013-01-25 12:58:00,17.0,8.9,30.23,South,179,0.4,2.3,70,0.00,CLR,,0.00,WeatherDisplay:10.37,2013-01-25 17:58:00,
2013-01-25 13:03:00,17.0,8.9,30.23,South,187,0.0,0.0,70,0.00,CLR,,0.00,WeatherDisplay:10.37,2013-01-25 18:03:00,
2013-01-25 13:08:00,17.1,9.0,30.22,East,92,0.0,0.0,70,0.00,CLR,,0.00,WeatherDisplay:10.37,2013-01-25 18:08:00,
2013-01-25 13:13:00,17.2,8.8,30.22,East,83,2.1,3.5,69,0.00,CLR,,0.00,WeatherDisplay:10.37,2013-01-25 18:13:00,
2013-01-25 13:18:00,17.1,9.0,30.22,SSE,153,0.2,1.1,70,0.00,CLR,,0.00,WeatherDisplay:10.37,2013-01-25 18:18:00,
2013-01-25 13:23:00,17.0,8.9,30.21,ENE,64,0.0,0.0,70,0.00,CLR,,0.00,WeatherDisplay:10.37,2013-01-25 18:23:00,
2013-01-25 13:28:00,17.2,8.8,30.21,SE,146,0.0,0.0,69,0.00,CLR,,0.00,WeatherDisplay:10.37,2013-01-25 18:28:00,
2013-01-25 13:33:00,17.3,8.9,30.21,East,79,0.0,0.0,69,0.00,CLR,,0.00,WeatherDisplay:10.37,2013-01-25 18:33:00,
2013-01-25 13:38:00,17.6,9.2,30.21,East,92,0.9,3.5,69,0.00,CLR,,0.00,WeatherDisplay:10.37,2013-01-25 18:38:00,
2013-01-25 13:43:00,17.8,9.3,30.20,East,86,0.0,0.0,69,0.00,CLR,,0.00,WeatherDisplay:10.37,2013-01-25 18:43:00,
2013-01-25 13:48:00,17.9,9.4,30.20,East,88,0.0,0.0,69,0.00,,,0.00,WeatherDisplay:10.37,2013-01-25 18:48:00,
2013-01-25 13:53:00,18.2,9.4,30.20,SSE,161,0.5,1.1,68,0.00,,,0.00,WeatherDisplay:10.37,2013-01-25 18:53:00,
2013-01-25 13:58:00,18.3,9.5,30.19,SSE,160,0.0,0.0,68,0.00,,,0.00,WeatherDisplay:10.37,2013-01-25 18:58:00,
2013-01-25 14:03:00,18.4,9.3,30.19,SSE,160,0.7,1.1,67,0.00,,,0.00,WeatherDisplay:10.37,2013-01-25 19:03:00,
2013-01-25 14:08:00,18.5,9.0,30.19,SSE,160,0.2,1.1,66,0.00,,,0.00,WeatherDisplay:10.37,2013-01-25 19:08:00,
2013-01-25 14:13:00,18.5,8.7,30.19,SSE,161,0.0,0.0,65,0.00,,,0.00,WeatherDisplay:10.37,2013-01-25 19:13:00,
2013-01-25 14:18:00,18.5,9.0,30.19,ENE,74,0.1,1.1,66,0.00,,,0.00,WeatherDisplay:10.37,2013-01-25 19:18:00,
2013-01-25 14:23:00,18.6,9.1,30.18,SE,145,0.2,1.1,66,0.00,,,0.00,WeatherDisplay:10.37,2013-01-25 19:23:00,
2013-01-25 14:28:00,18.4,8.2,30.18,ENE,63,0.0,0.0,64,0.00,,,0.00,WeatherDisplay:10.37,2013-01-25 19:28:00,
2013-01-25 14:33:00,18.2,8.4,30.18,ENE,78,0.0,0.0,65,0.00,,,0.00,WeatherDisplay:10.37,2013-01-25 19:33:00,
2013-01-25 14:38:00,18.1,8.6,30.18,ENE,78,0.0,0.0,66,0.00,,,0.00,WeatherDisplay:10.37,2013-01-25 19:38:00,
2013-01-25 14:43:00,18.0,8.2,30.17,East,90,0.3,1.1,65,0.00,,,0.00,WeatherDisplay:10.37,2013-01-25 19:43:00,
2013-01-25 14:48:00,18.0,8.2,30.17,East,82,0.0,0.0,65,0.00,,,0.00,WeatherDisplay:10.37,2013-01-25 19:48:00,
2013-01-25 14:53:00,17.8,8.4,30.17,East,82,0.2,1.1,66,0.00,,,0.00,WeatherDisplay:10.37,2013-01-25 19:53:00,
2013-01-25 14:58:00,17.6,7.8,30.17,ENE,64,0.0,0.0,65,0.00,,,0.00,WeatherDisplay:10.37,2013-01-25 19:58:00,
2013-01-25 15:03:00,17.4,8.3,30.17,SE,138,0.1,1.1,67,0.00,,,0.00,WeatherDisplay:10.37,2013-01-25 20:03:00,
2013-01-25 15:08:00,17.3,8.2,30.17,ESE,121,0.0,0.0,67,0.00,,,0.00,WeatherDisplay:10.37,2013-01-25 20:08:00,
2013-01-25 15:13:00,17.5,8.7,30.17,NE,51,1.0,3.5,68,0.00,,,0.00,WeatherDisplay:10.37,2013-01-25 20:13:00,
2013-01-25 15:18:00,17.4,8.6,30.16,East,91,0.0,0.0,68,0.00,,,0.00,WeatherDisplay:10.37,2013-01-25 20:18:00,
2013-01-25 15:23:00,17.3,8.9,30.16,ESE,123,0.0,0.0,69,0.00,,,0.00,WeatherDisplay:10.37,2013-01-25 20:23:00,
2013-01-25 15:28:00,17.1,9.0,30.16,East,90,0.0,0.0,70,0.00,,,0.00,WeatherDisplay:10.37,2013-01-25 20:28:00,
2013-01-25 15:33:00,17.0,9.2,30.15,East,80,0.9,2.3,71,0.00,,,0.00,WeatherDisplay:10.37,2013-01-25 20:33:00,
2013-01-25 15:38:00,16.9,9.4,30.15,East,82,0.0,0.0,72,0.00,,,0.00,WeatherDisplay:10.37,2013-01-25 20:38:00,
2013-01-25 15:43:00,16.9,10.0,30.15,East,82,0.0,0.0,74,0.00,,,0.00,WeatherDisplay:10.37,2013-01-25 20:43:00,
2013-01-25 15:48:00,16.9,10.3,30.15,East,83,0.3,2.3,75,0.00,,,0.00,WeatherDisplay:10.37,2013-01-25 20:48:00,
2013-01-25 15:53:00,16.7,10.1,30.14,SE,140,0.0,0.0,75,0.00,,,0.00,WeatherDisplay:10.37,2013-01-25 20:53:00,
2013-01-25 15:58:00,16.6,10.3,30.14,SE,140,0.0,0.0,76,0.00,,,0.00,WeatherDisplay:10.37,2013-01-25 20:58:00,
2013-01-25 16:03:00,16.4,10.4,30.14,SE,140,0.0,0.0,77,0.00,,,0.00,WeatherDisplay:10.37,2013-01-25 21:03:00,
2013-01-25 16:08:00,16.2,10.3,30.14,East,92,0.2,1.1,77,0.00,,,0.00,WeatherDisplay:10.37,2013-01-25 21:08:00,
2013-01-25 16:13:00,16.1,10.4,30.14,East,92,0.0,0.0,78,0.00,,,0.00,WeatherDisplay:10.37,2013-01-25 21:13:00,
2013-01-25 16:18:00,16.0,10.3,30.14,ESE,109,0.0,0.0,78,0.00,,,0.00,WeatherDisplay:10.37,2013-01-25 21:18:00,
2013-01-25 16:23:00,16.0,10.6,30.13,ESE,109,0.0,0.0,79,0.00,,,0.00,WeatherDisplay:10.37,2013-01-25 21:23:00,
2013-01-25 16:28:00,15.9,10.8,30.13,ENE,76,0.0,0.0,80,0.00,,,0.00,WeatherDisplay:10.37,2013-01-25 21:28:00,
2013-01-25 16:33:00,15.7,10.9,30.13,SSE,168,0.0,0.0,81,0.00,,,0.00,WeatherDisplay:10.37,2013-01-25 21:33:00,
2013-01-25 16:38:00,15.6,10.5,30.13,East,84,0.0,0.0,80,0.00,,,0.00,WeatherDisplay:10.37,2013-01-25 21:38:00,
2013-01-25 16:43:00,15.4,10.3,30.13,ESE,117,0.0,0.0,80,0.00,,,0.00,WeatherDisplay:10.37,2013-01-25 21:43:00,
2013-01-25 16:48:00,15.3,10.5,30.13,ESE,117,0.0,0.0,81,0.00,,,0.00,WeatherDisplay:10.37,2013-01-25 21:48:00,
2013-01-25 16:53:00,15.2,10.4,30.13,ESE,117,0.0,0.0,81,0.00,,,0.00,WeatherDisplay:10.37,2013-01-25 21:53:00,
2013-01-25 16:58:00,15.2,10.7,30.13,ESE,117,0.0,0.0,82,0.00,,,0.00,WeatherDisplay:10.37,2013-01-25 21:58:00,
2013-01-25 17:03:00,15.3,10.8,30.13,ESE,117,0.0,0.0,82,0.00,,,0.00,WeatherDisplay:10.37,2013-01-25 22:03:00,
2013-01-25 17:08:00,15.3,11.1,30.12,ESE,117,0.0,0.0,83,0.00,,,0.00,WeatherDisplay:10.37,2013-01-25 22:08:00,
2013-01-25 17:13:00,15.5,11.3,30.12,ESE,117,0.0,0.0,83,0.00,,,0.00,WeatherDisplay:10.37,2013-01-25 22:13:00,
2013-01-25 17:18:00,15.4,10.9,30.12,ESE,117,0.0,0.0,82,0.00,,,0.00,WeatherDisplay:10.37,2013-01-25 22:18:00,
2013-01-25 17:23:00,15.3,11.1,30.12,ESE,117,0.0,0.0,83,0.00,,,0.00,WeatherDisplay:10.37,2013-01-25 22:23:00,
2013-01-25 17:28:00,15.4,11.2,30.12,ESE,117,0.0,0.0,83,0.00,,,0.00,WeatherDisplay:10.37,2013-01-25 22:28:00,
2013-01-25 17:33:00,15.4,11.2,30.12,ESE,117,0.0,0.0,83,0.00,,,0.00,WeatherDisplay:10.37,2013-01-25 22:33:00,
2013-01-25 17:38:00,15.4,11.2,30.12,SE,133,0.0,0.0,83,0.00,,,0.00,WeatherDisplay:10.37,2013-01-25 22:38:00,
2013-01-25 17:43:00,15.5,11.5,30.12,SE,133,0.0,0.0,84,0.00,,,0.00,WeatherDisplay:10.37,2013-01-25 22:43:00,
2013-01-25 17:48:00,15.5,11.5,30.12,SE,133,0.0,0.0,84,0.00,,,0.00,WeatherDisplay:10.37,2013-01-25 22:48:00,
2013-01-25 17:53:00,15.5,11.5,30.11,SE,133,0.0,0.0,84,0.01,RA,,0.01,WeatherDisplay:10.37,2013-01-25 22:53:00,
2013-01-25 17:58:00,15.5,11.5,30.11,ESE,111,0.0,0.0,84,0.01,RA,,0.01,WeatherDisplay:10.37,2013-01-25 22:58:00,
2013-01-25 18:03:00,15.5,11.5,30.11,SE,126,0.0,0.0,84,0.01,,,0.01,WeatherDisplay:10.37,2013-01-25 23:03:00,
2013-01-25 18:08:00,15.5,11.5,30.11,SE,126,0.0,0.0,84,0.01,,,0.01,WeatherDisplay:10.37,2013-01-25 23:08:00,
2013-01-25 18:13:00,15.4,11.2,30.11,SE,127,0.0,0.0,83,0.01,,,0.01,WeatherDisplay:10.37,2013-01-25 23:13:00,
2013-01-25 18:18:00,15.4,11.4,30.11,SE,127,0.0,0.0,84,0.01,,,0.01,WeatherDisplay:10.37,2013-01-25 23:18:00,
2013-01-25 18:23:00,15.4,11.4,30.11,SE,127,0.0,0.0,84,0.01,,,0.01,WeatherDisplay:10.37,2013-01-25 23:23:00,
2013-01-25 18:28:00,15.3,11.3,30.11,SE,126,0.0,0.0,84,0.01,,,0.01,WeatherDisplay:10.37,2013-01-25 23:28:00,
2013-01-25 18:33:00,15.2,11.0,30.11,SE,126,0.0,0.0,83,0.01,,,0.01,WeatherDisplay:10.37,2013-01-25 23:33:00,
2013-01-25 18:38:00,15.2,11.0,30.11,ESE,121,0.0,0.0,83,0.01,,,0.01,WeatherDisplay:10.37,2013-01-25 23:38:00,
2013-01-25 18:43:00,15.1,10.9,30.11,ESE,121,0.0,0.0,83,0.01,,,0.01,WeatherDisplay:10.37,2013-01-25 23:43:00,
2013-01-25 18:48:00,15.2,11.2,30.11,ESE,121,0.0,0.0,84,0.01,,,0.01,WeatherDisplay:10.37,2013-01-25 23:48:00,
2013-01-25 18:53:00,15.2,11.2,30.11,ESE,121,0.0,0.0,84,0.00,,,0.01,WeatherDisplay:10.37,2013-01-25 23:53:00,
2013-01-25 18:58:00,15.1,11.1,30.11,East,84,1.1,2.3,84,0.00,,,0.01,WeatherDisplay:10.37,2013-01-25 23:58:00,
2013-01-25 19:03:00,15.0,11.0,30.11,ENE,75,0.0,1.1,84,0.00,,,0.01,WeatherDisplay:10.37,2013-01-26 00:03:00,
2013-01-25 19:08:00,15.0,11.0,30.11,ENE,75,0.0,0.0,84,0.00,,,0.01,WeatherDisplay:10.37,2013-01-26 00:08:00,
2013-01-25 19:13:00,14.9,10.7,30.11,ENE,68,0.1,1.1,83,0.00,,,0.01,WeatherDisplay:10.37,2013-01-26 00:13:00,
2013-01-25 19:18:00,14.8,10.8,30.10,ENE,68,0.0,0.0,84,0.00,,,0.01,WeatherDisplay:10.37,2013-01-26 00:18:00,
2013-01-25 19:23:00,14.7,10.5,30.10,ENE,68,0.0,0.0,83,0.00,,,0.01,WeatherDisplay:10.37,2013-01-26 00:23:00,
2013-01-25 19:28:00,14.6,10.4,30.10,ENE,65,0.0,0.0,83,0.00,,,0.01,WeatherDisplay:10.37,2013-01-26 00:28:00,
2013-01-25 19:33:00,14.3,10.1,30.11,East,83,0.6,0.0,83,0.00,,,0.01,WeatherDisplay:10.37,2013-01-26 00:33:00,
2013-01-25 19:38:00,14.2,10.0,30.11,East,83,0.0,0.0,83,0.00,,,0.01,WeatherDisplay:10.37,2013-01-26 00:38:00,
2013-01-25 19:43:00,14.1,10.2,30.11,East,83,0.0,0.0,84,0.00,,,0.01,WeatherDisplay:10.37,2013-01-26 00:43:00,
2013-01-25 19:48:00,14.1,10.2,30.11,East,83,0.0,0.0,84,0.00,,,0.01,WeatherDisplay:10.37,2013-01-26 00:48:00,
2013-01-25 19:53:00,14.1,10.2,30.11,ENE,71,0.0,0.0,84,0.00,,,0.01,WeatherDisplay:10.37,2013-01-26 00:53:00,
2013-01-25 19:58:00,14.1,10.2,30.11,East,96,0.0,0.0,84,0.00,,,0.01,WeatherDisplay:10.37,2013-01-26 00:58:00,
2013-01-25 20:03:00,14.1,10.2,30.11,East,95,0.0,0.0,84,0.00,,,0.01,WeatherDisplay:10.37,2013-01-26 01:03:00,
2013-01-25 20:08:00,14.1,10.4,30.10,East,96,0.0,0.0,85,0.00,,,0.01,WeatherDisplay:10.37,2013-01-26 01:08:00,
2013-01-25 20:13:00,14.1,10.2,30.10,East,82,0.0,1.0,84,0.00,,,0.01,WeatherDisplay:10.37,2013-01-26 01:13:00,
2013-01-25 20:18:00,13.9,10.0,30.10,East,82,0.0,0.0,84,0.00,,,0.01,WeatherDisplay:10.37,2013-01-26 01:18:00,
2013-01-25 20:23:00,13.7,9.8,30.10,ENE,64,0.0,0.0,84,0.00,,,0.01,WeatherDisplay:10.37,2013-01-26 01:23:00,
2013-01-25 20:28:00,13.5,9.3,30.10,ENE,63,0.0,0.0,83,0.00,,,0.01,WeatherDisplay:10.37,2013-01-26 01:28:00,
2013-01-25 20:33:00,13.4,9.5,30.10,ENE,63,0.0,0.0,84,0.00,,,0.01,WeatherDisplay:10.37,2013-01-26 01:33:00,
2013-01-25 20:38:00,13.2,9.0,30.10,ENE,65,0.0,0.0,83,0.00,,,0.01,WeatherDisplay:10.37,2013-01-26 01:38:00,
2013-01-25 20:43:00,13.0,9.1,30.10,East,91,0.0,0.0,84,0.00,,,0.01,WeatherDisplay:10.37,2013-01-26 01:43:00,
2013-01-25 20:48:00,12.9,11.0,30.10,East,80,0.0,0.0,92,0.00,,,0.01,WeatherDisplay:10.37,2013-01-26 01:48:00,
2013-01-25 20:53:00,12.8,8.9,30.10,East,80,0.0,0.0,84,0.00,,,0.01,WeatherDisplay:10.37,2013-01-26 01:53:00,
2013-01-25 20:58:00,12.7,8.8,30.10,East,79,0.0,0.0,84,0.00,,,0.01,WeatherDisplay:10.37,2013-01-26 01:58:00,
2013-01-25 21:03:00,12.5,8.6,30.10,East,79,0.0,0.0,84,0.00,,,0.01,WeatherDisplay:10.37,2013-01-26 02:03:00,
2013-01-25 21:08:00,12.5,8.6,30.10,East,79,0.0,0.0,84,0.00,,,0.01,WeatherDisplay:10.37,2013-01-26 02:08:00,
2013-01-25 21:13:00,12.3,8.4,30.10,East,79,0.0,0.0,84,0.00,,,0.01,WeatherDisplay:10.37,2013-01-26 02:13:00,
2013-01-25 21:18:00,12.1,8.2,30.10,East,79,0.0,0.0,84,0.00,,,0.01,WeatherDisplay:10.37,2013-01-26 02:18:00,
2013-01-25 21:23:00,11.9,8.0,30.10,East,80,0.0,0.0,84,0.00,,,0.01,WeatherDisplay:10.37,2013-01-26 02:23:00,
2013-01-25 21:28:00,11.8,7.9,30.10,East,79,0.0,0.0,84,0.00,,,0.01,WeatherDisplay:10.37,2013-01-26 02:28:00,
2013-01-25 21:33:00,11.7,7.8,30.10,East,80,0.0,0.0,84,0.00,,,0.01,WeatherDisplay:10.37,2013-01-26 02:33:00,
2013-01-25 21:38:00,11.5,7.6,30.10,East,79,0.0,0.0,84,0.00,,,0.01,WeatherDisplay:10.37,2013-01-26 02:38:00,
2013-01-25 21:43:00,11.3,7.4,30.10,East,79,0.0,0.0,84,0.00,,,0.01,WeatherDisplay:10.37,2013-01-26 02:43:00,
2013-01-25 21:48:00,11.2,7.3,30.10,East,80,0.0,0.0,84,0.00,,,0.01,WeatherDisplay:10.37,2013-01-26 02:48:00,
2013-01-25 21:53:00,11.0,7.1,30.10,East,79,0.0,0.0,84,0.00,,,0.01,WeatherDisplay:10.37,2013-01-26 02:53:00,
2013-01-25 21:58:00,10.9,7.3,30.10,East,79,0.0,0.0,85,0.00,,,0.01,WeatherDisplay:10.37,2013-01-26 02:58:00,
2013-01-25 22:03:00,10.8,7.2,30.10,East,80,0.0,0.0,85,0.00,,,0.01,WeatherDisplay:10.37,2013-01-26 03:03:00,
2013-01-25 22:08:00,10.8,7.2,30.10,East,80,0.0,0.0,85,0.00,,,0.01,WeatherDisplay:10.37,2013-01-26 03:08:00,
2013-01-25 22:13:00,10.7,7.1,30.10,East,79,0.0,0.0,85,0.00,,,0.01,WeatherDisplay:10.37,2013-01-26 03:13:00,
2013-01-25 22:18:00,10.7,7.1,30.10,East,79,0.0,0.0,85,0.00,,,0.01,WeatherDisplay:10.37,2013-01-26 03:18:00,
2013-01-25 22:23:00,10.7,7.1,30.10,East,79,0.0,0.0,85,0.00,,,0.01,WeatherDisplay:10.37,2013-01-26 03:23:00,
2013-01-25 22:28:00,10.6,7.0,30.10,East,79,0.0,0.0,85,0.00,,,0.01,WeatherDisplay:10.37,2013-01-26 03:28:00,
2013-01-25 22:33:00,10.5,6.9,30.10,East,79,0.0,0.0,85,0.00,,,0.01,WeatherDisplay:10.37,2013-01-26 03:33:00,
2013-01-25 22:38:00,10.2,6.6,30.10,East,79,0.0,0.0,85,0.00,,,0.01,WeatherDisplay:10.37,2013-01-26 03:38:00,
2013-01-25 22:43:00,10.0,6.4,30.11,East,79,0.0,0.0,85,0.00,,,0.01,WeatherDisplay:10.37,2013-01-26 03:43:00,
2013-01-25 22:48:00,9.9,6.3,30.10,East,79,0.0,0.0,85,0.00,,,0.01,WeatherDisplay:10.37,2013-01-26 03:48:00,
2013-01-25 22:53:00,9.9,6.3,30.10,East,79,0.0,0.0,85,0.00,,,0.01,WeatherDisplay:10.37,2013-01-26 03:53:00,
2013-01-25 22:58:00,9.8,6.2,30.10,East,79,0.0,0.0,85,0.00,,,0.01,WeatherDisplay:10.37,2013-01-26 03:58:00,
2013-01-25 23:03:00,9.6,6.0,30.11,East,79,0.0,0.0,85,0.00,,,0.01,WeatherDisplay:10.37,2013-01-26 04:03:00,
2013-01-25 23:08:00,9.4,5.8,30.11,East,79,0.0,0.0,85,0.00,,,0.01,WeatherDisplay:10.37,2013-01-26 04:08:00,
2013-01-25 23:13:00,9.3,5.7,30.11,East,79,0.0,0.0,85,0.00,,,0.01,WeatherDisplay:10.37,2013-01-26 04:13:00,
2013-01-25 23:18:00,9.2,5.6,30.11,East,79,0.0,0.0,85,0.00,,,0.01,WeatherDisplay:10.37,2013-01-26 04:18:00,
2013-01-25 23:23:00,9.1,5.5,30.10,East,79,0.0,0.0,85,0.00,,,0.01,WeatherDisplay:10.37,2013-01-26 04:23:00,
2013-01-25 23:28:00,9.0,5.4,30.11,East,79,0.0,0.0,85,0.00,,,0.01,WeatherDisplay:10.37,2013-01-26 04:28:00,
2013-01-25 23:33:00,8.5,4.7,30.11,East,79,0.0,0.0,84,0.00,,,0.01,WeatherDisplay:10.37,2013-01-26 04:33:00,
2013-01-25 23:38:00,8.0,4.2,30.11,East,79,0.0,0.0,84,0.00,,,0.01,WeatherDisplay:10.37,2013-01-26 04:38:00,
2013-01-25 23:43:00,7.6,4.0,30.11,East,79,0.0,0.0,85,0.00,,,0.01,WeatherDisplay:10.37,2013-01-26 04:43:00,
2013-01-25 23:48:00,7.6,4.0,30.11,East,79,0.0,0.0,85,0.00,,,0.01,WeatherDisplay:10.37,2013-01-26 04:48:00,
2013-01-25 23:53:00,7.5,3.9,30.11,East,79,0.0,0.0,85,0.00,,,0.01,WeatherDisplay:10.37,2013-01-26 04:53:00,
2013-01-25 23:58:00,7.4,3.8,30.10,East,79,0.0,0.0,85,0.00,,,0.01,WeatherDisplay:10.37,2013-01-26 04:58:00,